EWG2042 EDDS-EDDH

Flight info

Callsign EWG2042
Flight time N/A
Altitude 39000
Route OKIBA4B/25 OKIBA N851 RIMKI Z99 LOHRE DCT MASEK DCT ELNAT/N0431F380 P605 NOLGO NOLGO3P
Aircraft A20N/M-SDE2E3FGHIRWXY/LB1

Departure

Time N/A
Airport Stuttgart Airport (EDDS)

Arrival

Time 2026-05-03 20:42
Airport Hamburg Helmut Schmidt Airport (EDDH)
Time Latitude Longitude Altitude Speed Heading
2026-05-03 20:15 53.54501 10.11972 12214 ft 334 kts 351°
2026-05-03 20:15 53.56827 10.12038 11968 ft 338 kts
2026-05-03 20:15 53.59023 10.13438 11710 ft 341 kts 34°
2026-05-03 20:15 53.60760 10.16143 11476 ft 339 kts 49°
2026-05-03 20:16 53.62264 10.19167 11259 ft 337 kts 50°
2026-05-03 20:16 53.63770 10.22215 11013 ft 339 kts 51°
2026-05-03 20:16 53.65264 10.25281 10767 ft 338 kts 51°
2026-05-03 20:16 53.66749 10.28352 10523 ft 337 kts 51°
2026-05-03 20:17 53.68247 10.31386 10279 ft 336 kts 50°
2026-05-03 20:17 53.69746 10.34405 10042 ft 334 kts 50°
2026-05-03 20:17 53.71231 10.37402 9800 ft 332 kts 51°
2026-05-03 20:17 53.72696 10.40365 9534 ft 324 kts 51°
2026-05-03 20:18 53.74124 10.43261 9264 ft 318 kts 51°
2026-05-03 20:18 53.75530 10.46117 9043 ft 315 kts 51°
2026-05-03 20:18 53.76937 10.48979 8821 ft 318 kts 52°
2026-05-03 20:18 53.78355 10.51868 8565 ft 320 kts 51°
2026-05-03 20:19 53.79775 10.54763 8335 ft 319 kts 52°
2026-05-03 20:19 53.81197 10.57588 8040 ft 314 kts 46°
2026-05-03 20:19 53.82955 10.59700 7629 ft 311 kts 19°
2026-05-03 20:19 53.85054 10.60168 7129 ft 303 kts 347°
2026-05-03 20:20 53.86971 10.58923 6633 ft 293 kts 321°
2026-05-03 20:20 53.88377 10.56576 6252 ft 276 kts 294°
2026-05-03 20:20 53.88899 10.53632 6060 ft 252 kts 265°
2026-05-03 20:20 53.88556 10.50856 5931 ft 234 kts 242°
2026-05-03 20:21 53.87692 10.48630 5773 ft 221 kts 230°
2026-05-03 20:21 53.86714 10.46672 5562 ft 215 kts 229°
2026-05-03 20:21 53.85813 10.44661 5251 ft 214 kts 240°
2026-05-03 20:21 53.85377 10.42255 4924 ft 218 kts 263°
2026-05-03 20:23 53.93583 10.44843 3875 ft 264 kts 49°
2026-05-03 20:23 53.94777 10.47229 3873 ft 264 kts 52°
2026-05-03 20:24 53.95536 10.49988 3870 ft 259 kts 86°
2026-05-03 20:24 53.95426 10.53022 3898 ft 267 kts 103°
2026-05-03 20:24 53.94800 10.56021 3872 ft 271 kts 130°
2026-05-03 20:24 53.93409 10.57975 3875 ft 256 kts 165°
2026-05-03 20:25 53.91718 10.58144 3878 ft 242 kts 200°
2026-05-03 20:25 53.90309 10.56699 3888 ft 238 kts 227°
2026-05-03 20:25 53.89310 10.54453 3887 ft 239 kts 237°
2026-05-03 20:25 53.88429 10.52058 3877 ft 240 kts 238°
2026-05-03 20:26 53.87554 10.49652 3884 ft 239 kts 238°
2026-05-03 20:26 53.86679 10.47265 3965 ft 238 kts 238°
2026-05-03 20:26 53.85762 10.45032 3980 ft 223 kts 232°
2026-05-03 20:26 53.84823 10.43048 3978 ft 210 kts 231°
2026-05-03 20:27 53.83902 10.41166 3980 ft 207 kts 231°
2026-05-03 20:27 53.82968 10.39288 3989 ft 209 kts 229°
2026-05-03 20:27 53.82010 10.37428 3987 ft 210 kts 230°
2026-05-03 20:27 53.81066 10.35538 3972 ft 210 kts 230°
2026-05-03 20:28 53.80129 10.33644 3971 ft 210 kts 230°
2026-05-03 20:28 53.79197 10.31748 3938 ft 210 kts 230°
2026-05-03 20:28 53.78258 10.29835 3611 ft 211 kts 231°
2026-05-03 20:28 53.77329 10.27938 3329 ft 208 kts 231°
2026-05-03 20:29 53.76410 10.26061 3066 ft 206 kts 231°
2026-05-03 20:29 53.75504 10.24205 2992 ft 204 kts 231°
2026-05-03 20:29 53.74611 10.22377 2988 ft 205 kts 231°
2026-05-03 20:29 53.73692 10.20498 2990 ft 205 kts 231°
2026-05-03 20:30 53.72782 10.18641 2992 ft 206 kts 231°
2026-05-03 20:30 53.71885 10.16811 2992 ft 204 kts 231°
2026-05-03 20:30 53.70979 10.14968 2992 ft 204 kts 231°
2026-05-03 20:30 53.70073 10.13126 2846 ft 205 kts 231°
2026-05-03 20:31 53.69140 10.11265 2426 ft 209 kts 231°
2026-05-03 20:31 53.68201 10.09386 2011 ft 210 kts 231°
2026-05-03 20:31 53.67293 10.07565 1639 ft 193 kts 231°
2026-05-03 20:31 53.66507 10.05896 1295 ft 172 kts 235°
2026-05-03 20:32 53.65814 10.04365 951 ft 158 kts 230°
2026-05-03 20:32 53.65108 10.03003 627 ft 149 kts 232°
2026-05-03 20:32 53.64470 10.01631 872 ft 154 kts 233°
2026-05-03 20:32 53.63766 10.00153 1355 ft 171 kts 232°
2026-05-03 20:33 53.62931 9.98630 1872 ft 179 kts 227°
2026-05-03 20:33 53.62052 9.97247 2710 ft 168 kts 214°
2026-05-03 20:33 53.60886 9.96877 3275 ft 193 kts 172°
2026-05-03 20:33 53.59692 9.98450 3297 ft 250 kts 125°
2026-05-03 20:34 53.59367 10.01452 3574 ft 285 kts 79°
2026-05-03 20:34 53.60450 10.04368 3751 ft 309 kts 50°
2026-05-03 20:34 53.61741 10.06882 4632 ft 241 kts 47°
2026-05-03 20:34 53.62932 10.08983 4901 ft 270 kts 45°
2026-05-03 20:35 53.64444 10.11492 4339 ft 325 kts 45°
2026-05-03 20:35 53.65804 10.14119 5342 ft 253 kts 52°
2026-05-03 20:35 53.66896 10.16367 5071 ft 261 kts 48°
2026-05-03 20:35 53.68168 10.18610 4842 ft 254 kts 44°
2026-05-03 20:36 53.69431 10.20585 4822 ft 245 kts 41°
2026-05-03 20:36 53.70716 10.22438 4675 ft 241 kts 37°
2026-05-03 20:36 53.72027 10.24239 4318 ft 247 kts 38°
2026-05-03 20:36 53.73353 10.26035 4195 ft 239 kts 30°
2026-05-03 20:37 53.74865 10.26749 3718 ft 222 kts 332°
2026-05-03 20:37 53.75649 10.25044 3213 ft 177 kts 245°
2026-05-03 20:37 53.74686 10.23761 2268 ft 198 kts 198°
2026-05-03 20:37 53.73577 10.23514 2774 ft 137 kts 193°
2026-05-03 20:38 53.72751 10.22903 2331 ft 132 kts 230°
2026-05-03 20:38 53.72546 10.21419 1895 ft 139 kts 276°
2026-05-03 20:38 53.72778 10.19857 1533 ft 130 kts 271°
2026-05-03 20:38 53.72590 10.18574 1373 ft 108 kts 231°
2026-05-03 20:39 53.72021 10.17366 1606 ft 148 kts 231°
2026-05-03 20:39 53.71334 10.15966 2080 ft 167 kts 233°
2026-05-03 20:39 53.70633 10.14365 2556 ft 171 kts 235°
2026-05-03 20:39 53.70054 10.12888 2718 ft 135 kts 238°
2026-05-03 20:40 53.69572 10.11450 2426 ft 151 kts 242°
2026-05-03 20:40 53.69042 10.09904 2223 ft 154 kts 237°
2026-05-03 20:40 53.68276 10.08630 2045 ft 159 kts 224°
2026-05-03 20:40 53.67492 10.07408 1830 ft 147 kts 225°
2026-05-03 20:41 53.66727 10.06201 1347 ft 151 kts 226°
2026-05-03 20:41 53.66022 10.04916 1102 ft 143 kts 234°
2026-05-03 20:41 53.65413 10.03622 790 ft 141 kts 230°
2026-05-03 20:41 53.64791 10.02399 566 ft 134 kts 231°
2026-05-03 20:42 53.64219 10.01209 308 ft 127 kts 233°
2026-05-03 20:42 53.63680 10.00117 83 ft 119 kts 230°
2026-05-03 20:42 53.63196 9.99141 49 ft 88 kts 229°
2026-05-03 20:42 53.62971 9.98690 47 ft 28 kts 230°
2026-05-03 20:43 53.62830 9.98503 45 ft 24 kts 199°
2026-05-03 20:43 53.62711 9.98498 46 ft 11 kts 128°
2026-05-03 20:43 53.62711 9.98588 44 ft 6 kts 60°
2026-05-03 20:43 53.62733 9.98639 46 ft 6 kts 52°
2026-05-03 20:44 53.62768 9.98713 46 ft 10 kts 51°
2026-05-03 20:44 53.62822 9.98822 46 ft 14 kts 48°
2026-05-03 20:44 53.62891 9.98961 46 ft 18 kts 51°
2026-05-03 20:44 53.62980 9.99139 47 ft 19 kts 52°
2026-05-03 20:45 53.63023 9.99269 47 ft 5 kts 100°
2026-05-03 20:45 53.63011 9.99302 44 ft 3 kts 138°
2026-05-03 20:45 53.62986 9.99328 48 ft 6 kts 147°
2026-05-03 20:45 53.62938 9.99366 48 ft 5 kts 188°
2026-05-03 20:46 53.62927 9.99334 48 ft 5 kts 242°
2026-05-03 20:46 53.62906 9.99266 45 ft 0 kts 243°